TimeEDT,TemperatureF,Dew PointF,Humidity,Sea Level PressureIn,VisibilityMPH,Wind Direction,Wind SpeedMPH,Gust SpeedMPH,PrecipitationIn,Events,Conditions,WindDirDegrees,DateUTC
12:56 AM,69.1,62.1,78,30.24,10.0,NNE,8.1,-,N/A,,Partly Cloudy,30,2012-09-13 04:56:00
1:56 AM,66.9,62.1,84,30.23,10.0,North,5.8,-,N/A,,Clear,10,2012-09-13 05:56:00
2:56 AM,66.0,62.1,87,30.22,10.0,North,6.9,-,N/A,,Partly Cloudy,10,2012-09-13 06:56:00
3:56 AM,66.9,62.1,84,30.22,10.0,NNE,5.8,-,N/A,,Mostly Cloudy,20,2012-09-13 07:56:00
4:56 AM,66.9,63.0,87,30.22,10.0,NNE,8.1,-,N/A,,Mostly Cloudy,30,2012-09-13 08:56:00
5:56 AM,66.9,64.0,90,30.22,10.0,NNE,9.2,-,N/A,,Mostly Cloudy,30,2012-09-13 09:56:00
6:56 AM,68.0,64.9,90,30.23,10.0,NNE,8.1,-,N/A,,Mostly Cloudy,30,2012-09-13 10:56:00
7:56 AM,69.1,64.9,87,30.25,10.0,NE,5.8,-,N/A,,Mostly Cloudy,40,2012-09-13 11:56:00
8:56 AM,71.1,64.9,81,30.26,10.0,NE,10.4,-,N/A,,Mostly Cloudy,50,2012-09-13 12:56:00
9:56 AM,73.9,66.0,76,30.27,10.0,ENE,8.1,-,N/A,,Scattered Clouds,60,2012-09-13 13:56:00
10:56 AM,78.1,66.0,66,30.27,10.0,NE,12.7,-,N/A,,Scattered Clouds,50,2012-09-13 14:56:00
11:56 AM,81.0,66.0,60,30.26,10.0,NNE,9.2,-,N/A,,Scattered Clouds,20,2012-09-13 15:56:00
12:56 PM,80.1,63.0,56,30.25,10.0,ENE,9.2,-,N/A,,Mostly Cloudy,60,2012-09-13 16:56:00
1:56 PM,82.9,63.0,51,30.23,10.0,East,11.5,17.3,N/A,,Scattered Clouds,80,2012-09-13 17:56:00
2:56 PM,82.9,62.1,49,30.21,10.0,ENE,12.7,-,N/A,,Scattered Clouds,60,2012-09-13 18:56:00
3:56 PM,84.9,60.1,43,30.20,10.0,East,12.7,-,N/A,,Scattered Clouds,90,2012-09-13 19:56:00
4:56 PM,81.0,62.1,52,30.19,10.0,East,10.4,-,N/A,,Mostly Cloudy,80,2012-09-13 20:56:00
5:56 PM,82.0,63.0,52,30.18,10.0,East,13.8,-,N/A,,Scattered Clouds,90,2012-09-13 21:56:00
6:56 PM,79.0,63.0,58,30.19,10.0,ENE,11.5,-,N/A,,Scattered Clouds,70,2012-09-13 22:56:00
7:56 PM,75.0,63.0,66,30.19,10.0,ENE,5.8,-,N/A,,Scattered Clouds,70,2012-09-13 23:56:00
8:56 PM,73.9,64.0,71,30.20,10.0,ENE,5.8,-,N/A,,Scattered Clouds,60,2012-09-14 00:56:00
9:56 PM,71.1,64.9,81,30.21,10.0,NNE,4.6,-,N/A,,Partly Cloudy,20,2012-09-14 01:56:00
10:56 PM,72.0,66.0,81,30.21,10.0,NE,6.9,-,N/A,,Clear,50,2012-09-14 02:56:00
11:56 PM,70.0,64.9,84,30.21,10.0,NNE,3.5,-,N/A,,Clear,20,2012-09-14 03:56:00